Location: Robert Ferguson Observatory
(38.4385°N, 122.5078°W)
Time: 15:25:36
(UTC-07:00)

Daily predictions for brighter satellites

Satellite Brightness Start Highest point End
(mag) Time Altitude Azimuth Time Altitude Azimuth Time Altitude Azimuth
Cosmos 2056 Rocket 4.4 20:19:25 10° SSW 20:24:26 56° WNW 20:29:34 10° N
Meteor 1-18 Rocket 4.4 20:22:10 10° N 20:28:08 85° E 20:34:03 10° S
Resurs 1-3 3.9 20:24:11 10° SSE 20:28:23 48° ENE 20:32:37 10° N
USA 267 3.6 20:22:41 10° SE 20:29:13 70° SW 20:35:46 10° NW
Cosmos 1441 Rocket 3.3 20:28:46 10° NNW 20:32:30 76° W 20:36:14 10° S
Cosmos 2322 Rocket 2.7 20:27:27 10° S 20:32:37 37° ESE 20:37:49 10° NE
Cosmos 2263 Rocket 3.6 20:28:44 10° N 20:33:07 22° NE 20:37:29 10° ESE
Cosmos 1939 Rocket 4.0 20:32:37 10° SE 20:35:56 25° ENE 20:39:13 10° NNE
Cosmos 44 Rocket 3.3 20:31:13 10° NNW 20:35:58 65° ENE 20:40:44 10° SE
Okean 1 3.2 20:33:51 10° N 20:37:50 72° E 20:41:48 10° SSE
Cosmos 405 Rocket 4.3 20:35:30 10° NNW 20:39:04 38° W 20:42:42 10° SSW
Cosmos 1633 2.5 20:35:59 10° S 20:39:34 89° ENE 20:43:13 10° N
Cosmos 1536 4.1 20:38:12 10° SE 20:41:24 23° E 20:44:37 10° NE
SL-16 R/B 2.5 20:37:58 10° S 20:43:21 46° ESE 20:48:44 10° NE
Lacrosse 5 rocket 1.1 20:40:10 10° NW 20:43:50 69° NE 20:47:14 13° SE
YAOGAN 6 4.0 20:43:13 13° ESE 20:45:23 21° ENE 20:48:04 10° NNE
Cosmos 1452 Rocket 3.6 20:42:55 10° SSW 20:48:11 88° WNW 20:53:31 10° NNE
Uosat 12 SS-18 rocket 4.4 20:44:54 10° SSW 20:49:28 59° ESE 20:55:00 10° NE
Cosmos 1420 Rocket 3.9 20:46:15 10° S 20:51:21 68° ESE 20:56:31 10° NNE
ATLAS 2AS CENTAUR R/B 3.4 20:45:46 10° S 20:52:42 41° ESE 21:00:02 10° NE
Cosmos 921 Rocket 4.4 20:48:58 10° SW 20:52:56 42° WNW 20:56:56 10° N
Cosmos 407 Rocket 4.4 20:48:41 10° NNW 20:53:53 53° WSW 20:59:01 10° S
Tiangong 1 2.2 20:52:40 10° WNW 20:55:14 32° N 20:57:21 13° ENE
Okean 1 Rocket 4.2 20:52:34 13° SE 20:55:23 24° E 20:58:53 10° NE
Helios 1B rocket 3.4 20:53:30 10° NE 20:56:58 26° E 20:59:43 14° SSE
Meteor 2-11 Rocket 4.4 20:51:29 10° N 20:57:36 86° E 21:03:39 10° S
Resurs 01 Rocket 2.0 20:55:14 10° S 20:59:39 68° W 21:04:06 10° NNW
Cosmos 1300 Rocket 3.9 20:55:57 10° SSE 20:59:58 40° E 21:04:01 10° NNE
NOSS 2-3 (E) 3.8 20:59:01 10° SSW 21:03:31 58° ESE 21:08:39 10° NE
BREEZE-M DEB (TANK) 2.5 21:01:49 10° WSW 21:04:31 81° NNW 21:11:32 10° NE
S3M 4.0 20:58:47 10° N 21:05:04 74° E 21:11:24 10° SSE
Cosmos 2360 Rocket 3.0 21:02:01 10° SSE 21:06:41 27° ESE 21:11:21 10° NE
CZ-2D R/B 4.5 21:03:12 10° S 21:06:53 42° W 21:10:34 10° NNW
Cosmos 1553 Rocket 3.9 21:01:17 10° N 21:07:28 84° E 21:13:32 10° S
Cosmos 1980 Rocket 3.9 21:02:35 10° SW 21:07:44 37° WNW 21:12:55 10° N
Cosmos 1025 Rocket 4.4 21:05:47 10° NNE 21:08:59 20° ENE 21:09:50 19° E
Cosmos 2266 Rocket 4.0 21:05:50 10° SSE 21:11:40 53° E 21:17:30 10° NNE
Cosmos 2151 Rocket 3.7 21:07:48 10° SSW 21:12:11 76° W 21:16:35 10° N
Meteor 1-5 Rocket 4.4 21:07:34 10° SSE 21:12:35 43° E 21:17:35 10° NNE
SeaSat 1 2.6 21:09:33 10° NNE 21:14:30 78° WNW 21:19:24 10° SSW
Cosmos 44 3.8 21:14:05 10° NW 21:18:24 51° WSW 21:22:10 14° S
Lacrosse 5 1.9 21:14:43 10° SSW 21:19:38 53° SE 21:24:34 10° NE
CZ-4B DEB 3.7 21:20:10 27° ENE 21:20:10 27° ENE 21:22:29 10° NNE
Meteor 1-13 Rocket 4.4 21:16:21 10° N 21:22:20 82° W 21:28:16 10° S
Meteor 2-4 Rocket 3.6 21:17:59 10° N 21:23:34 73° E 21:28:02 17° SSE
Spot 2 Rocket 4.4 21:19:50 10° S 21:24:44 47° W 21:29:39 10° NNW
Cosmos 1140 Rocket 4.0 21:20:51 10° NNW 21:26:00 60° WSW 21:30:54 11° S
DELTA 2 R/B (1) 4.0 21:21:14 10° W 21:26:40 52° SSW 21:29:29 27° SE
Cosmos 614 Rocket 4.3 21:26:24 10° NNW 21:31:27 62° WSW 21:35:37 15° S
Okean 2 4.3 21:28:53 10° NNE 21:32:29 29° ENE 21:32:35 29° E
Meteor 1-29 2.9 21:31:12 10° NNE 21:34:34 54° E 21:34:46 53° ESE
Cosmos 1536 Rocket 4.0 21:30:33 10° NNW 21:34:48 59° W 21:38:26 14° S
USA 186 4.3 21:33:06 10° SSW 21:35:44 22° W 21:38:25 10° NW
SAR-Lupe-4 4.0 21:36:23 41° E 21:36:30 41° ENE 21:39:54 10° N
Helios 1A 2.9 21:34:58 30° SSE 21:37:04 87° ENE 21:41:20 10° NNW
NOSS 2-3 (C) 4.1 21:32:33 10° SW 21:37:10 72° NW 21:42:31 10° NNE
Atlas Centaur 2 3.3 21:30:05 10° WSW 21:37:38 43° S 21:40:38 29° SE
GPS 2-05 Rocket1 3.2 21:37:54 10° W 21:40:55 46° SSW 21:40:55 46° SSW
ERS-1 Rocket 3.0 21:46:24 40° SE 21:48:02 63° ENE 21:53:00 10° N
MetOp-A 4.2 21:47:50 40° SE 21:49:34 58° ENE 21:54:49 10° N
H-2A R/B 2.9 21:51:08 31° ENE 21:51:31 31° ENE 21:55:53 10° N
Cosmos 1741 Rocket 4.2 21:46:20 10° NNW 21:51:33 67° WSW 21:54:13 29° S
SAR-Lupe-1 4.4 21:53:51 53° NE 21:53:51 53° NE 21:56:59 10° N
SL-08 RB Rocket 4.1 22:01:44 45° ENE 22:01:44 45° ENE 22:06:01 10° N
OAO 1 Rocket 4.5 21:57:12 10° WSW 22:02:25 55° S 22:02:48 54° SSE
Terra 3.6 22:07:59 18° NE 22:07:59 18° NE 22:10:31 10° NNE
ARGOS 3.0 22:08:49 57° SE 22:09:48 72° ENE 22:15:09 10° N
ATLAS 3B R/B 2.8 22:04:22 10° NNW 22:10:59 56° NE 22:12:36 45° E
Delta 2 Rocket 4.5 22:09:07 10° WSW 22:11:52 35° SW 22:11:52 35° SW
Cosmos 1302 Rocket 4.3 22:15:40 50° ENE 22:15:40 50° ENE 22:20:02 10° NNE
Cosmos 2278 Rocket 4.2 22:13:40 10° NNE 22:16:29 14° NE 22:17:05 14° ENE
Cosmos 2322 Rocket 4.1 22:11:44 10° WSW 22:16:41 30° WNW 22:21:40 10° N
Cosmos 2263 Rocket 2.7 22:11:50 10° NNW 22:17:22 53° WSW 22:19:18 36° SSW
Cosmos 2237 4.0 22:16:44 59° SSE 22:17:39 71° ESE 22:23:19 10° NNE
Cosmos 1515 4.3 22:14:58 10° N 22:17:54 51° N 22:17:54 51° N
Lacrosse 5 rocket 3.9 22:21:43 10° WSW 22:22:36 11° WSW 22:22:57 11° SW
Cosmos 1110 Rocket 4.4 22:18:47 13° SSW 22:23:21 59° WNW 22:28:29 10° N
Cosmos 1844 Rocket 3.4 22:20:04 10° N 22:25:19 38° ENE 22:25:19 38° ENE
SL-16 R/B 4.4 22:23:03 10° WSW 22:27:39 25° NW 22:32:15 10° N
Tiangong 1 4.2 22:28:04 10° WNW 22:28:20 12° WNW 22:28:20 12° WNW
Cosmos 1244 Rocket 4.5 22:29:10 41° SSW 22:31:28 77° W 22:37:38 10° N
Nadezhda 1 Rocket 4.4 22:27:02 10° N 22:32:52 46° ENE 22:32:52 46° ENE
Cosmos 2219 Rocket 3.7 22:39:32 23° NE 22:39:32 23° NE 22:41:49 10° NE
Cosmos 2322 4.1 22:32:10 16° SW 22:36:36 62° WNW 22:42:15 10° NNE
Cosmos 1238 Rocket 3.9 22:31:53 10° N 22:38:40 89° W 22:39:35 68° S
ATLAS 2AS CENTAUR R/B 3.9 22:36:11 10° WSW 22:43:36 48° NW 22:51:26 10° NNE
COSMOS 2428 2.8 22:46:11 68° NE 22:46:11 68° NE 22:51:12 10° NNE
Cosmos 2360 Rocket 3.5 22:45:14 10° SW 22:50:27 38° WNW 22:55:42 10° N
SL-08 R/B 4.4 22:51:34 73° SW 22:52:11 82° W 22:58:32 10° N
SPOT 1/Viking Rocket 3.8 22:53:13 68° WNW 22:53:13 68° WNW 22:57:56 10° NNW
SPOT 5 3.6 22:53:52 50° W 22:53:52 50° W 22:58:02 10° NNW
Cosmos 1844 4.3 22:52:11 10° NNW 22:56:50 48° NNE 22:56:50 48° NNE
Cosmos 2333 Rocket 3.8 23:02:15 24° NE 23:02:15 24° NE 23:04:30 10° NNE
Aureole 3 Rocket 4.4 22:52:46 10° NNW 23:01:08 66° W 23:02:16 57° SW
H-2A R/B 4.3 23:04:19 19° NNE 23:04:19 19° NNE 23:05:51 10° N
Lacrosse 5 3.8 22:58:27 10° W 23:02:50 28° NW 23:07:13 10° NNE
Cosmos 2237 Rocket 4.1 23:24:05 20° NE 23:24:05 20° NE 23:25:47 10° NNE
Cosmos 1745 Rocket 4.4 23:25:13 54° WNW 23:25:13 54° WNW 23:31:08 10° N
Atlas Centaur 2 4.4 23:20:37 10° WSW 23:23:15 18° WSW 23:23:15 18° WSW
H-2A R/B 3.7 23:31:47 26° WNW 23:31:47 26° WNW 23:35:12 10° NW
NOSS 3-2 (A) 4.0 23:33:54 10° NW 23:41:04 80° WNW 23:41:04 80° WNW
USA 238 DEB 4.5 23:35:28 10° NW 23:41:23 43° W 23:41:23 43° W
USA 238 4.5 23:35:34 10° NW 23:41:29 44° W 23:41:29 44° W
Terra 3.8 23:46:52 25° NW 23:46:52 25° NW 23:49:08 10° NNW
